Weather in Nikitovka

Russia / Belgorod Oblast     50°21′12″N   38°25′07″E
temp.,
°C
wind,
m/s
gust,
m/s
humid.,
%
clouds,
%
prec.,
mm/h
press.,
hPa
HPBL,
m
31 july, sat
sat3100:00+19w239420 2.1 100872
03:00+19n238913 3.4 100950
06:00+19n228859 0.0 100958
09:00+24n23660 0.0 1010569
12:00+28n33440 0.0 10101702
15:00+30n12354 0.0 10092261
18:00+30nw123722 0.0 10091885
21:00+24nne015217 0.0 101111
1 august, sun
sun100:00+22n22510 0.0 101117
03:00+21ene33570 0.0 101226
06:00+21ese22640 0.0 101321
09:00+27e23480 0.0 1013482
12:00+31e34380 0.0 10121951
15:00+32ssw133487 0.0 10122759
18:00+24ese476896 0.7 1012176
21:00+23e227222 0.9 101135
2 august, mon
mon200:00+21se466420 0.0 101287
03:00+21se227261 0.0 101123
06:00+22nw01691 0.0 101211
09:00+28sw22475 0.0 1011376
12:00+33sw453585 0.0 10101420
15:00+34s68283 0.0 10093144
18:00+33ssw58330 0.0 1008712
21:00+24ene245464 0.0 100945
3 august, tue
tue300:00+23nw365778 0.0 1010246
03:00+19w1283100 1.0 101013
06:00+20sw3485100 0.8 1010103
09:00+23w46739 1.6 1010540
12:00+28w5648100 0.0 10101400
15:00+28wnw454481 0.0 10101620
18:00+27wnw45401 0.0 10101311
21:00+22n511507 0.0 1012332
4 august, wed
wed400:00+19nne256277 0.0 1014111
03:00+19n236031 0.0 101478
06:00+18n226617 0.0 101519
09:00+23nw224985 0.0 1016577
12:00+27wnw233780 0.0 10162414
15:00+27nw243443 0.0 10162352
18:00+27n333534 0.0 10151116
21:00+20ene335338 0.0 101635